Total_Precipitation_Accumulation
0.03 0.07 0.12 0.15 0.16 0.13 0.10 0.07 0.10 0.13 0.25 0.30 0.39 0.47 0.56 0.54 0.51 0.46 0.50 0.49 0.42 0.48 0.65 0.74 0.87 0.88 0.81 0.79 0.88 1.03 1.14 1.24 1.40 1.55 1.57 1.46 1.47 1.58 1.68 1.73 1.68 1.79 1.78 1.75
0.03 0.06 0.10 0.12 0.14 0.10 0.07 0.07 0.08 0.10 0.17 0.24 0.40 0.46 0.53 0.48 0.46 0.50 0.50 0.47 0.43 0.52 0.67 0.69 0.71 0.77 0.78 0.79 0.83 0.88 0.99 1.12 1.33 1.51 1.57 1.57 1.63 1.75 1.80 1.79 1.89 1.95 1.89 1.88
0.04 0.07 0.09 0.17 0.14 0.10 0.09 0.08 0.08 0.12 0.17 0.22 0.33 0.47 0.57 0.59 0.64 0.64 0.53 0.47 0.47 0.51 0.58 0.67 0.64 0.67 0.77 0.82 0.90 1.00 1.14 1.30 1.41 1.51 1.59 1.63 1.64 1.73 1.81 1.82 1.81 1.88 1.90 1.91
0.10 0.11 0.16 0.18 0.14 0.13 0.14 0.14 0.17 0.21 0.25 0.30 0.33 0.43 0.55 0.60 0.58 0.61 0.61 0.66 0.69 0.75 0.78 0.78 0.73 0.74 0.83 0.89 0.95 1.02 1.12 1.24 1.33 1.49 1.61 1.70 1.85 1.93 2.01 2.08 2.10 2.10 2.02 1.97
0.17 0.15 0.19 0.22 0.21 0.21 0.24 0.29 0.29 0.37 0.42 0.42 0.41 0.44 0.56 0.65 0.66 0.75 0.72 0.73 0.81 0.87 0.90 0.85 0.89 0.97 1.04 1.05 1.12 1.18 1.24 1.41 1.56 1.65 1.78 1.86 1.93 2.07 2.19 2.28 2.24 2.20 2.17 2.19
0.26 0.28 0.31 0.32 0.34 0.28 0.33 0.59 0.52 0.54 0.58 0.58 0.63 0.80 0.90 0.92 0.86 0.83 0.82 0.83 0.90 0.88 0.87 0.95 1.00 1.08 1.15 1.23 1.37 1.45 1.48 1.57 1.68 1.84 1.92 1.93 1.96 2.04 2.08 2.13 2.14 2.13 2.07 2.13
0.38 0.38 0.37 0.36 0.37 0.38 0.68 0.98 0.93 0.90 0.87 0.78 0.88 0.96 0.90 0.84 0.92 0.90 0.94 1.00 0.96 0.94 0.98 1.01 1.00 1.07 1.20 1.34 1.47 1.54 1.57 1.62 1.73 1.82 1.99 2.06 2.07 2.00 1.91 1.92 1.97 2.01 2.05 2.10
0.60 0.71 0.74 0.50 0.53 0.76 0.96 0.93 1.11 1.04 0.95 0.95 0.94 0.88 0.79 0.81 0.93 1.03 1.08 1.14 1.11 1.07 1.04 1.06 1.12 1.18 1.29 1.43 1.51 1.57 1.58 1.66 1.76 1.80 1.79 1.79 1.97 2.01 1.96 1.93 1.93 1.95 2.02 1.99
0.84 0.93 0.84 0.70 0.71 0.81 0.77 0.80 0.94 0.96 0.87 0.87 0.85 0.83 0.78 0.81 0.87 0.91 0.97 1.06 1.09 1.11 1.13 1.18 1.23 1.32 1.46 1.52 1.58 1.60 1.67 1.81 1.91 1.88 1.84 1.81 1.83 1.89 1.87 1.79 1.67 1.61 1.71 1.78
1.11 1.13 0.98 0.85 0.73 0.73 0.73 0.76 0.80 0.88 0.93 0.91 0.87 0.85 0.85 0.85 0.87 0.96 1.02 1.07 1.13 1.13 1.16 1.28 1.39 1.52 1.56 1.53 1.63 1.79 1.85 1.85 1.87 1.88 1.80 1.79 1.89 1.83 1.78 1.76 1.65 1.51 1.59 1.71
1.57 1.64 1.43 1.24 1.06 0.95 0.90 0.87 0.92 1.02 1.06 1.10 1.09 1.06 1.02 0.96 0.92 0.94 1.01 1.02 1.08 1.16 1.21 1.30 1.37 1.48 1.59 1.62 1.68 1.77 1.72 1.62 1.63 1.67 1.65 1.63 1.70 1.74 1.62 1.58 1.60 1.54 1.65 1.86
1.90 1.77 1.72 1.58 1.31 1.14 1.12 1.15 1.10 1.14 1.16 1.13 1.10 1.09 1.07 1.06 0.95 0.88 0.89 0.98 1.04 1.10 1.18 1.27 1.33 1.39 1.42 1.49 1.59 1.70 1.73 1.65 1.58 1.55 1.57 1.62 1.60 1.59 1.57 1.40 1.39 1.35 1.40 1.50
1.58 1.55 1.57 1.52 1.35 1.20 1.23 1.21 1.25 1.30 1.23 1.15 1.11 1.02 0.96 0.99 1.01 0.96 0.95 0.96 1.04 1.11 1.16 1.21 1.24 1.29 1.30 1.36 1.53 1.67 1.74 1.77 1.70 1.52 1.44 1.44 1.44 1.43 1.44 1.36 1.14 1.08 1.09 1.07
1.58 1.52 1.55 1.50 1.48 1.33 1.32 1.25 1.24 1.23 1.14 1.10 1.15 1.10 0.99 0.95 1.04 1.11 1.12 1.11 1.18 1.23 1.17 1.13 1.14 1.17 1.21 1.25 1.33 1.41 1.47 1.54 1.51 1.44 1.39 1.31 1.27 1.22 1.19 1.27 1.26 1.12 1.03 0.97
1.34 1.34 1.46 1.41 1.36 1.36 1.37 1.33 1.27 1.19 1.07 1.12 1.19 1.18 1.14 1.12 1.18 1.32 1.34 1.35 1.35 1.31 1.22 1.13 1.12 1.15 1.17 1.23 1.27 1.27 1.33 1.36 1.34 1.36 1.41 1.40 1.41 1.34 1.24 1.24 1.33 1.36 1.26 1.04
1.24 1.30 1.30 1.36 1.47 1.39 1.30 1.26 1.26 1.23 1.12 1.10 1.15 1.15 1.10 1.08 1.15 1.25 1.32 1.43 1.53 1.52 1.40 1.29 1.19 1.12 1.11 1.23 1.31 1.29 1.30 1.41 1.36 1.28 1.30 1.39 1.43 1.37 1.37 1.47 1.50 1.59 1.58 1.28
1.30 1.36 1.29 1.31 1.41 1.42 1.32 1.23 1.26 1.23 1.18 1.20 1.21 1.12 1.07 1.08 1.17 1.25 1.26 1.27 1.31 1.31 1.26 1.23 1.15 1.06 1.05 1.14 1.20 1.24 1.27 1.33 1.37 1.30 1.29 1.33 1.36 1.36 1.34 1.43 1.54 1.60 1.57 1.35
1.21 1.15 1.12 1.14 1.18 1.24 1.25 1.25 1.26 1.17 1.13 1.16 1.19 1.13 1.09 1.10 1.21 1.33 1.33 1.27 1.17 1.09 1.10 1.07 0.99 0.95 0.97 1.01 1.07 1.17 1.22 1.27 1.28 1.27 1.30 1.29 1.29 1.34 1.37 1.47 1.57 1.63 1.53 1.38
1.24 1.12 1.04 1.00 0.95 0.98 1.08 1.13 1.14 1.12 1.06 1.05 1.09 1.09 1.06 1.04 1.12 1.24 1.26 1.33 1.35 1.27 1.16 1.03 0.94 0.85 0.88 0.91 0.93 1.01 1.06 1.12 1.17 1.19 1.18 1.16 1.16 1.17 1.20 1.29 1.42 1.49 1.42 1.37
1.30 1.23 1.08 0.99 0.95 0.89 0.92 0.93 1.02 1.08 1.02 0.95 0.95 0.96 0.96 0.98 1.09 1.27 1.33 1.41 1.50 1.42 1.26 1.12 0.86 0.77 0.74 0.74 0.77 0.74 0.77 0.79 0.80 0.84 0.86 0.91 0.95 0.98 0.98 1.02 1.15 1.23 1.18 1.22
1.34 1.27 1.15 1.03 1.04 0.98 0.92 0.85 0.88 0.98 0.96 1.00 1.04 1.03 1.00 0.98 1.03 1.24 1.52 1.66 1.51 1.33 1.21 1.18 0.91 0.71 0.62 0.66 0.73 0.71 0.72 0.72 0.71 0.73 0.74 0.76 0.80 0.85 0.93 1.00 1.05 1.07 1.11 1.13
1.29 1.23 1.14 1.07 1.03 1.02 0.98 0.88 0.86 0.91 0.93 0.98 0.94 0.93 0.98 0.98 0.98 1.12 1.30 1.51 1.41 1.29 1.06 1.00 0.87 0.65 0.57 0.53 0.52 0.61 0.68 0.74 0.75 0.78 0.79 0.80 0.83 0.88 0.93 0.92 0.92 0.94 0.97 1.03
1.30 1.21 1.12 1.02 0.95 0.95 0.93 0.92 0.88 0.88 0.88 0.89 0.87 0.91 0.99 1.00 0.97 1.12 1.22 1.09 1.02 1.02 0.90 0.86 0.82 0.68 0.57 0.50 0.50 0.54 0.59 0.66 0.70 0.72 0.71 0.71 0.76 0.79 0.84 0.85 0.86 0.86 0.94 0.99
1.23 1.27 1.20 1.10 0.97 0.92 0.95 0.94 0.90 0.89 0.87 0.86 0.86 0.89 0.93 0.94 0.90 0.87 0.90 0.91 0.90 0.88 0.79 0.83 0.75 0.63 0.54 0.50 0.54 0.57 0.60 0.63 0.65 0.65 0.63 0.66 0.72 0.79 0.86 0.90 0.93 0.92 0.92 0.90
1.17 1.15 1.14 1.12 1.05 0.98 0.94 0.91 0.94 0.99 0.94 0.89 0.85 0.84 0.84 0.84 0.84 0.81 0.76 0.77 0.81 0.76 0.71 0.75 0.70 0.67 0.59 0.60 0.64 0.65 0.64 0.66 0.67 0.66 0.66 0.70 0.78 0.85 0.89 0.91 0.91 0.88 0.85 0.84
1.08 1.06 1.06 1.03 0.98 1.00 0.99 0.96 1.00 1.02 0.96 0.91 0.89 0.85 0.78 0.75 0.77 0.83 0.88 0.86 0.79 0.75 0.66 0.64 0.62 0.67 0.66 0.69 0.74 0.74 0.71 0.70 0.68 0.65 0.69 0.77 0.83 0.88 0.87 0.81 0.78 0.80 0.77 0.73
0.99 1.02 1.04 1.00 0.97 0.96 0.96 0.93 0.97 1.04 1.01 0.94 0.95 0.93 0.90 0.91 0.91 0.92 0.90 0.88 0.84 0.77 0.70 0.65 0.62 0.58 0.61 0.65 0.68 0.70 0.71 0.71 0.69 0.71 0.76 0.80 0.79 0.76 0.72 0.67 0.68 0.68 0.66 0.66